Вернуться в каталог

KUIPER-00556

АктивенСвязьLEO
NORAD 69621·PAYLOAD·🇺🇸 United States

Запущен Jun 17, 2026 с Guiana Space Centre

Loading…

Ближайшие Пролёты (ближайшие 24 часа)

TLE

СвежийSource: CelesTrak SupGP

Эпоха: Sep 14, 2026, 22:10 UTC

1 69621C 26140AF  26257.92403935 -.00481590  00000+0 -61751-1 0  2570
2 69621  51.8975 331.3632 0007947 124.0626 159.6076 14.81257412    10

Отслеживайте KUIPER-00556 в реальном времени с AllMySat

Download on the App Store